Location: Dattensoll
(49.9928°N, 9.8954°E)
Time: 06:27:50
(UTC+00:00)

Cosmos 1980 Rocket - Pass Details

Date: 19 May 2025
Orbit: 829 x 848 km, 71.0° (Epoch: 22 June)

Event Time Altitude Azimuth Distance (km) Brightness Sun altitude
Rises 20:45:36 0° 331° (NNW) 3,383 7.3 -12.5°
Reaches altitude 10° 20:48:04 10° 334° (NNW) 2,446 6.0 -12.7°
Maximum altitude 20:53:39 70° 58° (ENE) 887 2.3 -13.2°
Enters shadow 20:57:41 19° 139° (SE) 1,868 3.4 -13.6°
